Location: Eschertshofen
(49.3064°N, 11.5756°E)
Time: 10:14:14
(UTC+00:00)

Spot 2 Rocket - Visible Passes

Search period start: 20 June 2021 00:00
Search period end: 30 June 2021 00:00
Orbit: 758 x 771 km, 98.5° (Epoch: 19 June)

Date Brightness Start Highest point End Pass type
(mag) Time Alt. Az. Time Alt. Az. Time Alt. Az.
20 Jun 3.6 20:29:00 10° SSE 20:34:04 83° WSW 20:39:11 10° NNW visible
20 Jun 5.9 22:11:47 10° WSW 22:13:51 12° W 22:15:55 10° WNW visible
21 Jun 5.2 21:32:18 10° SSW 21:36:27 25° W 21:40:40 10° NW visible
22 Jun 4.2 20:54:21 10° S 20:59:16 51° W 21:04:15 10° NNW visible
23 Jun 3.5 20:17:13 10° SSE 20:22:17 80° ENE 20:27:24 10° NNW visible
23 Jun 5.8 21:58:51 10° SW 22:01:53 16° W 22:04:57 10° NW visible
24 Jun 4.9 21:20:04 10° SSW 21:24:34 32° W 21:29:07 10° NNW visible
25 Jun 3.8 20:42:25 10° S 20:47:26 64° WSW 20:52:31 10° NNW visible
26 Jun 3.7 20:05:31 10° SSE 20:10:31 64° ENE 20:15:34 10° N visible
26 Jun 5.6 21:46:17 10° SW 21:49:57 20° W 21:53:40 10° NW visible
27 Jun 4.6 21:07:56 10° SSW 21:12:41 39° W 21:17:29 10° NNW visible
28 Jun 3.6 20:30:33 10° SSE 20:35:38 81° WSW 20:40:47 10° NNW visible
28 Jun 5.9 22:13:29 10° WSW 22:15:26 12° W 22:17:24 10° WNW visible
29 Jun 5.3 21:33:54 10° SSW 21:38:02 25° W 21:42:13 10° NW visible
